Weather History for Lexington, KY

Change the Weather History Date:

Tuesday, May 28, 2013

  Actual Average Record
Temperature  
Mean Temperature 77 °F 68 °F  
Max Temperature 86 °F 78 °F 93 °F (1911)
Min Temperature 68 °F 57 °F 39 °F (1907)
Degree Days  
Heating Degree Days 0 2  
Month to date heating degree days 81 107  
Since 1 July heating degree days 4667 4596  
Cooling Degree Days 12 4  
Month to date cooling degree days 88 69  
Year to date cooling degree days 118 91  
Growing Degree Days 27 (Base 50)    
Moisture  
Dew Point 59 °F    
Average Humidity 58    
Maximum Humidity 73    
Minimum Humidity 43    
Precipitation  
Precipitation T in 0.17 in 1.36 in (1990)
Month to date precipitation 5.09 4.72  
Year to date precipitation 21.29 18.79  
Snow  
Snow 0.00 in 0.00 in - ()
Month to date snowfall 0.0 0.0  
Since 1 July snowfall 12.5 13.0  
Snow Depth 0.00 in    
Sea Level Pressure  
Sea Level Pressure 30.03 in    
Wind  
Wind Speed 11 mph (SSW)    
Max Wind Speed 23 mph    
Max Gust Speed 35 mph    
Visibility 10 miles    
Events      
T = Trace of Precipitation, MM = Missing Value Source: NWS Daily Summary

Daily Weather History Graph

Daily Weather History Graph

Search for Another Location

Airport:

Trip Planner

Search our weather history database for the weather conditions in past years. The results will help you decide how hot, cold, wet, or windy it might be!

Date:

Astronomy

May. 28, 2013 Rise Set
Actual Time 6:19 AM EDT 8:52 PM EDT
Civil Twilight 5:48 AM EDT 9:23 PM EDT
Nautical Twilight 5:10 AM EDT 10:01 PM EDT
Astronomical Twilight 4:28 AM EDT 10:44 PM EDT
Moon No Moon Rise 10:04 AM EDT (5/28)
Length of Visible Light 15h 35m
Length of Day
14h 33m
Waning Gibbous, 83% of the Moon is Illuminated
May 28
Waning Gibbous
May 31
Last Quarter
Jun 8
New
Jun 16
First Quarter
Jun 23
Full

Hourly Weather History & Observations

Time (EDT) Temp. Heat Index Dew Point Humidity Pressure Visibility Wind Dir Wind Speed Gust Speed Precip Events Conditions
12:54 AM 70.0 °F - 57.0 °F 63% 30.03 in 10.0 mi South 6.9 mph - N/A   Partly Cloudy
1:54 AM 68.0 °F - 57.0 °F 68% 30.01 in 10.0 mi South 8.1 mph - N/A   Clear
2:54 AM 68.0 °F - 57.9 °F 70% 30.00 in 10.0 mi South 10.4 mph - N/A   Clear
3:54 AM 69.1 °F - 57.9 °F 68% 30.01 in 10.0 mi South 9.2 mph - N/A   Overcast
4:54 AM 69.1 °F - 57.9 °F 68% 30.02 in 10.0 mi SSW 9.2 mph - N/A   Mostly Cloudy
5:54 AM 69.1 °F - 59.0 °F 70% 30.04 in 10.0 mi SSW 6.9 mph - N/A   Overcast
6:54 AM 69.1 °F - 60.1 °F 73% 30.05 in 10.0 mi SSW 5.8 mph - 0.00 in   Overcast
7:54 AM 70.0 °F - 61.0 °F 73% 30.06 in 10.0 mi South 9.2 mph - N/A   Partly Cloudy
8:54 AM 71.1 °F - 61.0 °F 70% 30.07 in 10.0 mi South 9.2 mph - N/A   Partly Cloudy
9:54 AM 77.0 °F - 62.1 °F 60% 30.08 in 10.0 mi SSW 8.1 mph - N/A   Clear
10:54 AM 80.1 °F 81.2 °F 62.1 °F 54% 30.08 in 10.0 mi SW 18.4 mph - N/A   Partly Cloudy
11:54 AM 82.0 °F 82.7 °F 61.0 °F 49% 30.06 in 10.0 mi SW 16.1 mph 24.2 mph N/A   Clear
12:54 PM 82.0 °F 82.7 °F 61.0 °F 49% 30.06 in 10.0 mi SW 15.0 mph 23.0 mph N/A   Partly Cloudy
1:54 PM 84.0 °F 84.0 °F 60.1 °F 44% 30.05 in 10.0 mi SW 18.4 mph 31.1 mph N/A   Partly Cloudy
2:54 PM 86.0 °F 86.3 °F 62.1 °F 44% 30.04 in 10.0 mi SW 15.0 mph - N/A   Clear
3:54 PM 84.9 °F 84.4 °F 59.0 °F 41% 30.02 in 10.0 mi SSW 17.3 mph 29.9 mph N/A   Clear
4:54 PM 84.0 °F 83.8 °F 59.0 °F 43% 30.01 in 10.0 mi SSW 16.1 mph 25.3 mph N/A   Clear
5:54 PM 82.9 °F 82.8 °F 59.0 °F 44% 30.00 in 10.0 mi SSW 17.3 mph - N/A   Clear
6:54 PM 82.9 °F 82.6 °F 57.9 °F 42% 29.98 in 10.0 mi SSW 15.0 mph 20.7 mph N/A   Clear
7:54 PM 79.0 °F - 59.0 °F 50% 29.99 in 10.0 mi SSW 8.1 mph - N/A   Clear
8:54 PM 77.0 °F - 57.0 °F 50% 29.99 in 10.0 mi South 8.1 mph - N/A   Clear
9:54 PM 73.0 °F - 57.0 °F 57% 30.01 in 10.0 mi South 5.8 mph - N/A   Clear
10:54 PM 72.0 °F - 57.0 °F 59% 30.01 in 10.0 mi SSE 5.8 mph - N/A   Clear
11:54 PM 69.1 °F - 57.9 °F 68% 30.02 in 10.0 mi South 6.9 mph - N/A   Clear